Location: Newark
(25.0000°N, 73.5000°E)
Time: 02:29:20
(UTC+00:00)

RS-15 - Pass Details

Date: 22 February 2020
Orbit: 1898 x 2146 km, 64.8° (Epoch: 04 April)

Event Time Altitude Azimuth Distance (km) Brightness Sun altitude
Rises 22:29:53 0° 348° (NNW) 5,320 10.3 -42.5°
Reaches altitude 10° 22:34:46 10° 5° (N) 4,352 9.9 -41.4°
Maximum altitude 22:42:07 19° 48° (NE) 3,708 9.9 -39.8°
Drops below altitude 10° 22:49:35 10° 89° (E) 4,474 10.6 -38.1°
Sets 22:54:36 0° 106° (ESE) 5,519 11.2 -37.0°
